^^
Station Historical Data
Daily Summary for March 6, 2017 Units:  English    Metric   Both
« Previous Day
Next Day »
Daily Weekly Monthly Yearly Custom
  High: Low: Average:
Temperature: 50.4 °F 21.0 °F 36.7 °F
Dew Point: 30.2 °F 5.8 °F 18 °F
Humidity: 73 % 29 % 49 %
Wind Speed: 6.4 mph 0.0 mph 1.3 mph
Wind Gust: 10.4 mph - -
Wind:- - South
Pressure: 30.56 in 30.38 in -
Precipitation: 0.00 in    
Historical Graphs
 
 
Tabular Data for March 6, 2017
Time Temperature Dew Point Pressure Wind Wind Speed Wind Gust Humidity Rainfall Rate (Hourly) solar Conditions
00:04 23.2 °F 12.1 °F 30.55 in Calm     62 % 0.00 in 0.0 W/m2 CLR
00:05 23.2 °F 12.1 °F 30.55 in Calm     62 % 0.00 in 0.0 W/m2 CLR
00:10 22.8 °F 12.1 °F 30.55 in Calm     63 % 0.00 in 0.0 W/m2 CLR
00:15 22.5 °F 11.8 °F 30.55 in Calm     63 % 0.00 in 0.0 W/m2 CLR
00:20 22.6 °F 11.9 °F 30.55 in Calm     63 % 0.00 in 0.0 W/m2 CLR
00:25 22.5 °F 11.8 °F 30.55 in Calm     63 % 0.00 in 0.0 W/m2 CLR
00:30 22.7 °F 12.0 °F 30.55 in Calm     63 % 0.00 in 0.0 W/m2 CLR
00:35 22.7 °F 11.6 °F 30.55 in Calm     62 % 0.00 in 0.0 W/m2 CLR
00:40 22.5 °F 12.1 °F 30.56 in Calm     64 % 0.00 in 0.0 W/m2 CLR
00:45 22.3 °F 12.0 °F 30.55 in Calm     64 % 0.00 in 0.0 W/m2 CLR
00:50 22.1 °F 12.5 °F 30.55 in Calm     66 % 0.00 in 0.0 W/m2 CLR
00:55 22.1 °F 12.8 °F 30.55 in Calm     67 % 0.00 in 0.0 W/m2 CLR
01:00 22.3 °F 13.0 °F 30.55 in Calm     67 % 0.00 in 0.0 W/m2 CLR
01:05 22.2 °F 12.6 °F 30.55 in Calm     66 % 0.00 in 0.0 W/m2 CLR
01:10 22.2 °F 12.9 °F 30.55 in Calm     67 % 0.00 in 0.0 W/m2 CLR
01:15 22.1 °F 12.8 °F 30.55 in Calm     67 % 0.00 in 0.0 W/m2 CLR
01:20 21.8 °F 12.5 °F 30.55 in Calm     67 % 0.00 in 0.0 W/m2 CLR
01:25 21.9 °F 12.6 °F 30.55 in Calm     67 % 0.00 in 0.0 W/m2 CLR
01:30 22.0 °F 13.0 °F 30.55 in Calm     68 % 0.00 in 0.0 W/m2 CLR
01:36 21.8 °F 12.9 °F 30.55 in Calm     68 % 0.00 in 0.0 W/m2 CLR
01:41 21.7 °F 12.8 °F 30.55 in Calm     68 % 0.00 in 0.0 W/m2 CLR
01:46 21.6 °F 12.7 °F 30.55 in Calm     68 % 0.00 in 0.0 W/m2 CLR
01:51 21.4 °F 12.8 °F 30.55 in Calm     69 % 0.00 in 0.0 W/m2 CLR
01:56 21.4 °F 12.8 °F 30.55 in Calm     69 % 0.00 in 0.0 W/m2 CLR
02:01 21.6 °F 13.0 °F 30.55 in Calm     69 % 0.00 in 0.0 W/m2 CLR
02:06 21.7 °F 13.1 °F 30.55 in Calm     69 % 0.00 in 0.0 W/m2 CLR
02:11 21.7 °F 13.1 °F 30.54 in Calm     69 % 0.00 in 0.0 W/m2 CLR
02:16 21.8 °F 13.2 °F 30.54 in Calm     69 % 0.00 in 0.0 W/m2 CLR
02:21 21.9 °F 13.3 °F 30.54 in Calm     69 % 0.00 in 0.0 W/m2 CLR
02:26 21.6 °F 13.0 °F 30.54 in Calm     69 % 0.00 in 0.0 W/m2 CLR
02:31 21.3 °F 13.0 °F 30.53 in Calm     70 % 0.00 in 0.0 W/m2 CLR
02:36 21.4 °F 13.5 °F 30.53 in Calm     71 % 0.00 in 0.0 W/m2 CLR
02:41 21.3 °F 13.4 °F 30.53 in Calm     71 % 0.00 in 0.0 W/m2 CLR
02:46 21.2 °F 13.3 °F 30.53 in Calm     71 % 0.00 in 0.0 W/m2 CLR
02:51 21.1 °F 13.2 °F 30.53 in Calm     71 % 0.00 in 0.0 W/m2 CLR
02:56 21.3 °F 13.4 °F 30.53 in Calm     71 % 0.00 in 0.0 W/m2 CLR
03:01 21.2 °F 13.3 °F 30.53 in Calm     71 % 0.00 in 0.0 W/m2 CLR
03:06 21.1 °F 13.2 °F 30.53 in Calm     71 % 0.00 in 0.0 W/m2 CLR
03:11 21.0 °F 13.1 °F 30.53 in Calm     71 % 0.00 in 0.0 W/m2 CLR
03:16 21.3 °F 13.7 °F 30.53 in Calm     72 % 0.00 in 0.0 W/m2 CLR
03:21 21.3 °F 13.7 °F 30.53 in Calm     72 % 0.00 in 0.0 W/m2 CLR
03:26 21.4 °F 13.8 °F 30.53 in Calm     72 % 0.00 in 0.0 W/m2 CLR
03:31 21.5 °F 13.9 °F 30.53 in Calm     72 % 0.00 in 0.0 W/m2 CLR
03:36 21.4 °F 13.8 °F 30.54 in Calm     72 % 0.00 in 0.0 W/m2 CLR
03:41 21.4 °F 13.8 °F 30.54 in Calm     72 % 0.00 in 0.0 W/m2 CLR
03:42 21.4 °F 13.8 °F 30.54 in Calm     72 % 0.00 in 0.0 W/m2 CLR
03:47 21.5 °F 13.9 °F 30.54 in Calm     72 % 0.00 in 0.0 W/m2 CLR
03:52 21.2 °F 13.6 °F 30.54 in Calm     72 % 0.00 in 0.0 W/m2 CLR
03:57 21.1 °F 13.8 °F 30.54 in Calm     73 % 0.00 in 0.0 W/m2 CLR
04:02 21.0 °F 13.7 °F 30.54 in Calm     73 % 0.00 in 0.0 W/m2 CLR
04:07 21.1 °F 13.8 °F 30.54 in Calm     73 % 0.00 in 0.0 W/m2 CLR
04:12 21.2 °F 13.9 °F 30.54 in Calm     73 % 0.00 in 0.0 W/m2 CLR
04:17 21.4 °F 14.1 °F 30.54 in Calm     73 % 0.00 in 0.0 W/m2 CLR
04:22 21.6 °F 14.3 °F 30.54 in Calm     73 % 0.00 in 0.0 W/m2 CLR
04:27 21.6 °F 14.0 °F 30.54 in Calm     72 % 0.00 in 0.0 W/m2 CLR
04:32 21.6 °F 13.6 °F 30.54 in Calm     71 % 0.00 in 0.0 W/m2 CLR
04:37 21.8 °F 13.8 °F 30.54 in Calm     71 % 0.00 in 0.0 W/m2 CLR
04:42 22.0 °F 13.7 °F 30.54 in Calm     70 % 0.00 in 0.0 W/m2 CLR
04:47 22.1 °F 13.8 °F 30.54 in Calm     70 % 0.00 in 0.0 W/m2 CLR
04:52 22.0 °F 14.0 °F 30.54 in Calm     71 % 0.00 in 0.0 W/m2 CLR
04:57 21.8 °F 13.8 °F 30.54 in Calm     71 % 0.00 in 0.0 W/m2 CLR
05:02 21.8 °F 13.8 °F 30.54 in Calm     71 % 0.00 in 0.0 W/m2 CLR
05:07 21.6 °F 14.0 °F 30.54 in Calm     72 % 0.00 in 0.0 W/m2 CLR
05:12 21.6 °F 14.3 °F 30.55 in Calm     73 % 0.00 in 0.0 W/m2 CLR
05:17 21.6 °F 14.3 °F 30.55 in Calm     73 % 0.00 in 0.0 W/m2 CLR
05:22 21.8 °F 14.5 °F 30.55 in Calm     73 % 0.00 in 0.0 W/m2 CLR
05:27 22.0 °F 14.7 °F 30.55 in Calm     73 % 0.00 in 0.0 W/m2 CLR
05:32 22.2 °F 14.9 °F 30.56 in Calm     73 % 0.00 in 0.0 W/m2 CLR
05:37 22.1 °F 14.8 °F 30.55 in Calm     73 % 0.00 in 0.0 W/m2 CLR
05:42 22.1 °F 14.4 °F 30.55 in Calm     72 % 0.00 in 0.0 W/m2 CLR
05:47 22.2 °F 14.5 °F 30.55 in Calm     72 % 0.00 in 0.0 W/m2 CLR
05:52 22.2 °F 14.5 °F 30.56 in Calm     72 % 0.00 in 0.0 W/m2 CLR
05:57 22.5 °F 14.8 °F 30.55 in Calm     72 % 0.00 in 0.0 W/m2 CLR
06:02 22.6 °F 14.3 °F 30.55 in Calm     70 % 0.00 in 0.0 W/m2 CLR
06:07 22.8 °F 14.1 °F 30.55 in Calm     69 % 0.00 in 0.0 W/m2 CLR
06:12 22.9 °F 13.9 °F 30.55 in Calm     68 % 0.00 in 0.0 W/m2 CLR
06:17 23.0 °F 13.7 °F 30.55 in Calm     67 % 0.00 in 0.0 W/m2 CLR
06:22 23.1 °F 13.1 °F 30.54 in Calm     65 % 0.00 in 5.0 W/m2 CLR
06:27 23.4 °F 13.4 °F 30.55 in Calm     65 % 0.00 in 9.0 W/m2 CLR
06:32 23.6 °F 13.2 °F 30.55 in Calm     64 % 0.00 in 16.0 W/m2 CLR
06:37 23.5 °F 13.1 °F 30.56 in Calm     64 % 0.00 in 21.0 W/m2 CLR
06:42 23.6 °F 13.2 °F 30.55 in Calm     64 % 0.00 in 23.0 W/m2 CLR
06:47 23.7 °F 12.9 °F 30.55 in Calm     63 % 0.00 in 25.0 W/m2 CLR
06:52 23.8 °F 13.0 °F 30.56 in NW 0.8 mph 2.3 mph 63 % 0.00 in 28.0 W/m2 CLR
06:57 24.0 °F 13.2 °F 30.55 in Calm     63 % 0.00 in 26.0 W/m2 CLR
07:02 24.1 °F 13.3 °F 30.55 in Calm   1.2 mph 63 % 0.00 in 25.0 W/m2 CLR
07:07 24.0 °F 12.9 °F 30.55 in Calm     62 % 0.00 in 28.0 W/m2 CLR
07:12 24.1 °F 13.3 °F 30.55 in Calm     63 % 0.00 in 42.0 W/m2 CLR
07:17 24.6 °F 13.8 °F 30.55 in Calm     63 % 0.00 in 46.0 W/m2 FEW
07:22 24.5 °F 13.3 °F 30.55 in Calm     62 % 0.00 in 39.0 W/m2 SCT
07:27 24.8 °F 13.6 °F 30.55 in NW 1.1 mph 2.3 mph 62 % 0.00 in 47.0 W/m2 SCT
07:32 25.2 °F 14.0 °F 30.55 in Calm     62 % 0.00 in 49.0 W/m2 BKN
07:38 25.4 °F 13.8 °F 30.55 in Calm     61 % 0.00 in 54.0 W/m2 BKN
07:43 25.8 °F 13.8 °F 30.55 in Calm     60 % 0.00 in 72.0 W/m2 SCT
07:48 26.3 °F 14.7 °F 30.55 in Calm     61 % 0.00 in 118.0 W/m2 CLR
07:52 26.3 °F 14.3 °F 30.55 in Calm     60 % 0.00 in 137.0 W/m2 SCT
07:57 26.6 °F 14.2 °F 30.55 in NW 1.4 mph 2.3 mph 59 % 0.00 in 148.0 W/m2 CLR
08:03 27.3 °F 13.7 °F 30.55 in Calm     56 % 0.00 in 149.0 W/m2 FEW
08:04 27.3 °F 13.7 °F 30.55 in Calm     56 % 0.00 in 141.0 W/m2 FEW
08:09 27.8 °F 13.7 °F 30.55 in NW 0.7 mph 1.2 mph 55 % 0.00 in 107.0 W/m2 SCT
08:14 28.3 °F 13.3 °F 30.54 in Calm   1.2 mph 53 % 0.00 in 123.0 W/m2 SCT
08:19 28.7 °F 12.8 °F 30.54 in NW 1.4 mph 2.3 mph 51 % 0.00 in 209.0 W/m2 CLR
08:24 29.2 °F 11.9 °F 30.54 in NW 1.8 mph 2.3 mph 48 % 0.00 in 269.0 W/m2 CLR
08:29 29.6 °F 11.8 °F 30.54 in NW 0.2 mph 2.3 mph 47 % 0.00 in 320.0 W/m2 CLR
08:34 30.5 °F 12.2 °F 30.54 in Calm     46 % 0.00 in 350.0 W/m2 CLR
08:39 31.3 °F 10.3 °F 30.54 in Calm     41 % 0.00 in 383.0 W/m2 CLR
08:44 31.8 °F 9.0 °F 30.54 in NW 0.3 mph 1.0 mph 38 % 0.00 in 390.0 W/m2 CLR
08:49 32.1 °F 8.7 °F 30.54 in South 2.7 mph 4.6 mph 37 % 0.00 in 413.0 W/m2 CLR
08:54 32.5 °F 8.5 °F 30.53 in SE 1.3 mph 3.5 mph 36 % 0.00 in 418.0 W/m2 CLR
08:59 32.7 °F 8.0 °F 30.53 in SE 1.6 mph 4.6 mph 35 % 0.00 in 438.0 W/m2 CLR
09:04 33.2 °F 7.8 °F 30.53 in Calm   3.5 mph 34 % 0.00 in 455.0 W/m2 CLR
09:09 33.7 °F 8.3 °F 30.53 in SE 0.6 mph 2.3 mph 34 % 0.00 in 466.0 W/m2 CLR
09:14 34.1 °F 7.3 °F 30.54 in South 0.3 mph 2.0 mph 32 % 0.00 in 480.0 W/m2 CLR
09:19 34.0 °F 5.8 °F 30.54 in SSW 2.1 mph 5.8 mph 30 % 0.00 in 476.0 W/m2 CLR
09:24 34.7 °F 6.4 °F 30.54 in SW 4.3 mph 5.0 mph 30 % 0.00 in 510.0 W/m2 CLR
09:29 35.0 °F 7.4 °F 30.54 in SSE 2.5 mph 3.5 mph 31 % 0.00 in 515.0 W/m2 CLR
09:34 35.4 °F 7.0 °F 30.54 in SSW 5.6 mph 7.0 mph 30 % 0.00 in 536.0 W/m2 CLR
09:39 35.1 °F 6.0 °F 30.54 in South 3.1 mph 4.6 mph 29 % 0.00 in 547.0 W/m2 CLR
09:44 35.2 °F 7.5 °F 30.54 in South 1.4 mph 2.3 mph 31 % 0.00 in 561.0 W/m2 CLR
09:49 35.8 °F 7.3 °F 30.54 in SSE 1.6 mph 5.8 mph 30 % 0.00 in 570.0 W/m2 CLR
09:54 35.7 °F 8.0 °F 30.53 in SSE 0.5 mph 6.0 mph 31 % 0.00 in 585.0 W/m2 CLR
09:59 36.1 °F 8.3 °F 30.53 in SE 2.2 mph 4.6 mph 31 % 0.00 in 599.0 W/m2 CLR
10:04 36.7 °F 9.6 °F 30.53 in SE 2.7 mph 5.0 mph 32 % 0.00 in 610.0 W/m2 CLR
10:09 36.7 °F 8.9 °F 30.52 in South 2.4 mph 4.6 mph 31 % 0.00 in 622.0 W/m2 CLR
10:14 37.3 °F 10.1 °F 30.52 in SE 0.6 mph 4.6 mph 32 % 0.00 in 631.0 W/m2 CLR
10:19 37.1 °F 9.9 °F 30.52 in SSE 3.9 mph 3.9 mph 32 % 0.00 in 642.0 W/m2 CLR
10:24 37.4 °F 10.2 °F 30.52 in SE 1.7 mph 4.6 mph 32 % 0.00 in 650.0 W/m2 CLR
10:29 37.9 °F 11.3 °F 30.52 in SSE 2.9 mph 5.0 mph 33 % 0.00 in 659.0 W/m2 CLR
10:34 38.2 °F 10.9 °F 30.52 in South 0.7 mph 3.5 mph 32 % 0.00 in 679.0 W/m2 CLR
10:39 38.3 °F 11.0 °F 30.52 in SE 3.8 mph 3.8 mph 32 % 0.00 in 715.0 W/m2 CLR
10:45 38.0 °F 11.4 °F 30.52 in ESE 1.3 mph 6.9 mph 33 % 0.00 in 413.0 W/m2 CLR
10:50 38.0 °F 11.4 °F 30.52 in East 3.3 mph 4.6 mph 33 % 0.00 in 443.0 W/m2 FEW
10:55 38.0 °F 12.1 °F 30.52 in Calm   1.0 mph 34 % 0.00 in 439.0 W/m2 SCT
11:00 38.8 °F 12.1 °F 30.52 in Calm   3.5 mph 33 % 0.00 in 420.0 W/m2 FEW
11:05 39.0 °F 12.3 °F 30.51 in NE 1.2 mph 3.5 mph 33 % 0.00 in 455.0 W/m2 FEW
11:10 39.6 °F 13.5 °F 30.51 in ESE 0.6 mph 2.3 mph 34 % 0.00 in 459.0 W/m2 FEW
11:15 40.3 °F 13.4 °F 30.51 in South 3.6 mph 4.6 mph 33 % 0.00 in 480.0 W/m2 CLR
11:20 41.1 °F 13.4 °F 30.51 in Calm     32 % 0.00 in 429.0 W/m2 FEW
11:25 40.7 °F 13.1 °F 30.50 in Calm     32 % 0.00 in 369.0 W/m2 SCT
11:30 40.5 °F 14.3 °F 30.50 in Calm   1.2 mph 34 % 0.00 in 350.0 W/m2 SCT
11:35 40.8 °F 13.9 °F 30.50 in Calm     33 % 0.00 in 364.0 W/m2 SCT
11:40 40.9 °F 14.0 °F 30.50 in South 2.0 mph 4.0 mph 33 % 0.00 in 338.0 W/m2 SCT
11:45 41.2 °F 14.9 °F 30.50 in SSW 0.4 mph 3.5 mph 34 % 0.00 in 304.0 W/m2 BKN
11:50 40.9 °F 14.6 °F 30.50 in Calm   1.0 mph 34 % 0.00 in 272.0 W/m2 BKN
11:55 40.9 °F 14.6 °F 30.50 in SSW 0.9 mph 3.0 mph 34 % 0.00 in 297.0 W/m2 BKN
12:00 41.0 °F 16.0 °F 30.49 in SE 2.7 mph 6.9 mph 36 % 0.00 in 313.0 W/m2 BKN
12:05 41.2 °F 15.6 °F 30.49 in South 5.9 mph 9.2 mph 35 % 0.00 in 309.0 W/m2 BKN
12:10 41.2 °F 15.6 °F 30.49 in SSE 2.3 mph 6.9 mph 35 % 0.00 in 352.0 W/m2 SCT
12:15 41.4 °F 16.4 °F 30.48 in SSE 3.6 mph 8.1 mph 36 % 0.00 in 371.0 W/m2 SCT
12:20 41.6 °F 15.9 °F 30.49 in SW 4.6 mph 8.1 mph 35 % 0.00 in 381.0 W/m2 SCT
12:25 41.7 °F 16.0 °F 30.48 in South 4.6 mph 6.9 mph 35 % 0.00 in 376.0 W/m2 SCT
12:30 42.2 °F 17.1 °F 30.48 in South 3.1 mph 4.6 mph 36 % 0.00 in 410.0 W/m2 SCT
12:35 42.0 °F 16.9 °F 30.48 in South 0.5 mph 3.0 mph 36 % 0.00 in 413.0 W/m2 SCT
12:40 42.3 °F 17.2 °F 30.48 in SSW 0.5 mph 2.0 mph 36 % 0.00 in 424.0 W/m2 FEW
12:45 42.3 °F 16.6 °F 30.47 in South 2.2 mph 4.6 mph 35 % 0.00 in 429.0 W/m2 FEW
12:50 42.3 °F 16.6 °F 30.47 in South 1.7 mph 4.6 mph 35 % 0.00 in 403.0 W/m2 SCT
12:55 42.7 °F 17.6 °F 30.46 in ESE 3.4 mph 4.6 mph 36 % 0.00 in 476.0 W/m2 FEW
13:00 43.1 °F 17.9 °F 30.46 in SE 3.5 mph 5.8 mph 36 % 0.00 in 578.0 W/m2 CLR
13:05 43.5 °F 18.3 °F 30.46 in SE 2.8 mph 3.5 mph 36 % 0.00 in 645.0 W/m2 CLR
13:10 43.9 °F 18.0 °F 30.45 in South 5.6 mph 9.2 mph 35 % 0.00 in 524.0 W/m2 CLR
13:15 44.5 °F 18.5 °F 30.45 in SSE 2.5 mph 4.6 mph 35 % 0.00 in 714.0 W/m2 CLR
13:20 45.0 °F 18.3 °F 30.45 in SSE 4.1 mph 6.9 mph 34 % 0.00 in 666.0 W/m2 CLR
13:25 45.2 °F 18.5 °F 30.44 in SSW 0.4 mph 3.5 mph 34 % 0.00 in 670.0 W/m2 CLR
13:30 45.7 °F 18.9 °F 30.44 in SE 0.1 mph 3.5 mph 34 % 0.00 in 494.0 W/m2 FEW
13:31 45.7 °F 19.6 °F 30.44 in SE 1.4 mph 2.3 mph 35 % 0.00 in 476.0 W/m2 FEW
13:36 46.4 °F 19.5 °F 30.44 in SE 1.5 mph 5.0 mph 34 % 0.00 in 510.0 W/m2 CLR
13:41 46.0 °F 19.2 °F 30.44 in SSW 6.4 mph 9.2 mph 34 % 0.00 in 510.0 W/m2 CLR
13:46 46.4 °F 18.8 °F 30.43 in SSW 3.6 mph 6.9 mph 33 % 0.00 in 506.0 W/m2 CLR
13:51 46.6 °F 19.0 °F 30.43 in SSE 5.5 mph 8.1 mph 33 % 0.00 in 633.0 W/m2 CLR
13:56 47.0 °F 19.3 °F 30.43 in South 5.3 mph 8.1 mph 33 % 0.00 in 636.0 W/m2 CLR
14:01 47.5 °F 19.8 °F 30.43 in SE 2.9 mph 6.0 mph 33 % 0.00 in 610.0 W/m2 CLR
14:06 47.5 °F 20.5 °F 30.43 in SE 3.1 mph 3.5 mph 34 % 0.00 in 540.0 W/m2 CLR
14:11 47.7 °F 20.0 °F 30.43 in South 0.9 mph 6.9 mph 33 % 0.00 in 606.0 W/m2 CLR
14:16 48.2 °F 19.7 °F 30.43 in SSE 3.2 mph 6.9 mph 32 % 0.00 in 652.0 W/m2 CLR
14:21 47.9 °F 20.1 °F 30.42 in SSE 1.1 mph   33 % 0.00 in 652.0 W/m2 CLR
14:26 48.5 °F 21.4 °F 30.42 in ESE 5.2 mph 6.9 mph 34 % 0.00 in 640.0 W/m2 CLR
14:31 48.9 °F 21.0 °F 30.42 in South 6.1 mph 8.0 mph 33 % 0.00 in 577.0 W/m2 CLR
14:36 48.7 °F 20.8 °F 30.42 in WSW 0.6 mph 6.9 mph 33 % 0.00 in 464.0 W/m2 CLR
14:41 48.8 °F 20.9 °F 30.42 in South 4.6 mph 8.1 mph 33 % 0.00 in 469.0 W/m2 CLR
14:46 48.7 °F 20.8 °F 30.42 in SSE 1.0 mph 1.0 mph 33 % 0.00 in 422.0 W/m2 CLR
14:51 49.1 °F 21.2 °F 30.42 in ESE 1.5 mph 4.0 mph 33 % 0.00 in 519.0 W/m2 CLR
14:56 50.0 °F 22.0 °F 30.42 in South 5.0 mph 10.4 mph 33 % 0.00 in 529.0 W/m2 CLR
15:01 49.4 °F 21.5 °F 30.42 in Calm   2.3 mph 33 % 0.00 in 512.0 W/m2 CLR
15:06 49.9 °F 21.2 °F 30.42 in SSW 3.5 mph 4.6 mph 32 % 0.00 in 483.0 W/m2 CLR
15:11 50.1 °F 21.3 °F 30.42 in SSW 6.2 mph 7.0 mph 32 % 0.00 in 494.0 W/m2 CLR
15:16 50.0 °F 22.0 °F 30.41 in South 1.5 mph 3.5 mph 33 % 0.00 in 519.0 W/m2 CLR
15:21 50.2 °F 22.9 °F 30.41 in SE 0.8 mph 2.3 mph 34 % 0.00 in 482.0 W/m2 CLR
15:27 50.4 °F 22.3 °F 30.41 in South 0.6 mph 3.5 mph 33 % 0.00 in 264.0 W/m2 CLR
15:32 50.3 °F 22.3 °F 30.41 in Calm     33 % 0.00 in 237.0 W/m2 SCT
15:37 50.1 °F 22.1 °F 30.41 in South 3.4 mph 3.5 mph 33 % 0.00 in 209.0 W/m2 SCT
15:42 50.0 °F 22.0 °F 30.40 in SSE 1.2 mph 3.5 mph 33 % 0.00 in 234.0 W/m2 FEW
15:47 49.7 °F 22.4 °F 30.40 in South 3.3 mph 8.1 mph 34 % 0.00 in 225.0 W/m2 SCT
15:52 49.9 °F 22.6 °F 30.40 in South 2.6 mph 4.0 mph 34 % 0.00 in 260.0 W/m2 FEW
15:57 49.8 °F 22.5 °F 30.40 in South 5.1 mph 6.0 mph 34 % 0.00 in 253.0 W/m2 CLR
16:02 49.6 °F 23.0 °F 30.40 in SSE 2.7 mph 4.6 mph 35 % 0.00 in 162.0 W/m2 SCT
16:07 49.8 °F 23.2 °F 30.40 in SE 4.7 mph 7.0 mph 35 % 0.00 in 225.0 W/m2 SCT
16:12 49.7 °F 23.8 °F 30.40 in South 3.9 mph 5.8 mph 36 % 0.00 in 171.0 W/m2 FEW
16:17 49.8 °F 23.9 °F 30.40 in SSE 4.6 mph 5.0 mph 36 % 0.00 in 200.0 W/m2 FEW
16:22 49.8 °F 23.9 °F 30.40 in SE 2.1 mph 4.6 mph 36 % 0.00 in 171.0 W/m2 FEW
16:27 49.8 °F 23.2 °F 30.40 in South 5.3 mph 8.1 mph 35 % 0.00 in 137.0 W/m2 SCT
16:32 49.6 °F 23.0 °F 30.40 in SE 4.6 mph 8.1 mph 35 % 0.00 in 113.0 W/m2 SCT
16:37 49.5 °F 23.6 °F 30.40 in SSW 5.1 mph 7.0 mph 36 % 0.00 in 98.0 W/m2 SCT
16:42 49.4 °F 23.5 °F 30.40 in South 2.5 mph 6.9 mph 36 % 0.00 in 93.0 W/m2 SCT
16:43 49.4 °F 23.5 °F 30.41 in South 4.6 mph 6.9 mph 36 % 0.00 in 93.0 W/m2 SCT
16:47 49.4 °F 23.5 °F 30.40 in South 1.5 mph 5.8 mph 36 % 0.00 in 86.0 W/m2 SCT
16:52 49.2 °F 23.4 °F 30.40 in South 3.0 mph 5.8 mph 36 % 0.00 in 88.0 W/m2 SCT
16:57 49.1 °F 23.3 °F 30.40 in SSE 2.8 mph 3.5 mph 36 % 0.00 in 98.0 W/m2 FEW
16:58 49.0 °F 23.2 °F 30.40 in SSE 2.2 mph 3.5 mph 36 % 0.00 in 98.0 W/m2 FEW
17:01 49.0 °F 23.8 °F 30.40 in SSE 0.6 mph 2.3 mph 37 % 0.00 in 100.0 W/m2 FEW
17:06 49.1 °F 23.9 °F 30.40 in SSE 2.1 mph 5.8 mph 37 % 0.00 in 83.0 W/m2 FEW
17:11 49.1 °F 23.9 °F 30.41 in South 1.2 mph 2.3 mph 37 % 0.00 in 54.0 W/m2 SCT
17:16 49.0 °F 23.8 °F 30.41 in South 2.4 mph 5.8 mph 37 % 0.00 in 39.0 W/m2 BKN
17:17 49.0 °F 23.8 °F 30.41 in South 4.2 mph 5.8 mph 37 % 0.00 in 39.0 W/m2 BKN
17:22 48.9 °F 23.7 °F 30.41 in SSE 0.2 mph 4.0 mph 37 % 0.00 in 33.0 W/m2 BKN
17:27 48.8 °F 23.0 °F 30.41 in South 3.2 mph 6.9 mph 36 % 0.00 in 25.0 W/m2 BKN
17:32 48.7 °F 23.6 °F 30.41 in SSE 0.7 mph 3.5 mph 37 % 0.00 in 19.0 W/m2 BKN
17:37 48.5 °F 24.0 °F 30.41 in South 2.3 mph 5.0 mph 38 % 0.00 in 14.0 W/m2 BKN
17:42 48.4 °F 23.3 °F 30.41 in South 1.6 mph 4.6 mph 37 % 0.00 in 9.0 W/m2 BKN
17:47 48.1 °F 23.0 °F 30.41 in SSE 2.5 mph 6.9 mph 37 % 0.00 in 5.0 W/m2 OVC
17:52 48.0 °F 23.6 °F 30.41 in SSE 0.8 mph 1.2 mph 38 % 0.00 in 0.0 W/m2 OVC
17:56 47.8 °F 23.4 °F 30.41 in Calm   3.5 mph 38 % 0.00 in 0.0 W/m2 CLR
18:01 47.6 °F 23.2 °F 30.41 in South 1.1 mph 3.5 mph 38 % 0.00 in 0.0 W/m2 CLR
18:06 47.4 °F 23.0 °F 30.41 in South 0.1 mph 1.2 mph 38 % 0.00 in 0.0 W/m2 CLR
18:08 47.4 °F 23.0 °F 30.41 in Calm   1.2 mph 38 % 0.00 in 0.0 W/m2 CLR
18:11 47.3 °F 23.6 °F 30.41 in South 0.9 mph   39 % 0.00 in 0.0 W/m2 CLR
18:16 47.2 °F 22.9 °F 30.41 in South 0.9 mph   38 % 0.00 in 0.0 W/m2 CLR
18:20 47.1 °F 22.8 °F 30.41 in South 1.4 mph 3.5 mph 38 % 0.00 in 0.0 W/m2 CLR
18:26 47.1 °F 22.8 °F 30.41 in South 0.8 mph 1.2 mph 38 % 0.00 in 0.0 W/m2 CLR
18:30 47.0 °F 23.3 °F 30.41 in Calm   1.2 mph 39 % 0.00 in 0.0 W/m2 CLR
18:36 46.8 °F 23.1 °F 30.42 in South 0.3 mph 6.9 mph 39 % 0.00 in 0.0 W/m2 CLR
18:41 46.8 °F 23.1 °F 30.42 in South 0.3 mph 2.0 mph 39 % 0.00 in 0.0 W/m2 CLR
18:46 46.7 °F 23.0 °F 30.42 in Calm     39 % 0.00 in 0.0 W/m2 CLR
18:51 46.6 °F 22.9 °F 30.42 in South 1.8 mph 4.0 mph 39 % 0.00 in 0.0 W/m2 CLR
18:56 46.5 °F 23.4 °F 30.41 in Calm   2.3 mph 40 % 0.00 in 0.0 W/m2 CLR
19:01 46.4 °F 23.4 °F 30.41 in Calm   2.3 mph 40 % 0.00 in 0.0 W/m2 CLR
19:06 46.4 °F 23.4 °F 30.42 in Calm     40 % 0.00 in 0.0 W/m2 CLR
19:11 46.3 °F 23.3 °F 30.41 in SSE 0.6 mph 3.5 mph 40 % 0.00 in 0.0 W/m2 CLR
19:16 46.2 °F 23.8 °F 30.41 in SSE 1.0 mph 4.6 mph 41 % 0.00 in 0.0 W/m2 CLR
19:21 46.2 °F 23.8 °F 30.41 in Calm     41 % 0.00 in 0.0 W/m2 CLR
19:24 46.1 °F 24.3 °F 30.41 in South 0.6 mph 3.0 mph 42 % 0.00 in 0.0 W/m2 CLR
19:28 46.1 °F 24.3 °F 30.41 in Calm     42 % 0.00 in 0.0 W/m2 CLR
19:31 46.1 °F 24.3 °F 30.42 in SSE 2.5 mph 2.5 mph 42 % 0.00 in 0.0 W/m2 CLR
19:36 46.1 °F 24.3 °F 30.42 in Calm   1.0 mph 42 % 0.00 in 0.0 W/m2 CLR
19:41 46.0 °F 24.2 °F 30.42 in South 0.3 mph 2.3 mph 42 % 0.00 in 0.0 W/m2 CLR
19:46 46.0 °F 24.2 °F 30.42 in South 0.1 mph 3.0 mph 42 % 0.00 in 0.0 W/m2 CLR
19:51 45.9 °F 24.1 °F 30.42 in South 1.4 mph 3.5 mph 42 % 0.00 in 0.0 W/m2 CLR
19:53 45.9 °F 24.1 °F 30.41 in South 4.8 mph 7.0 mph 42 % 0.00 in 0.0 W/m2 CLR
19:56 45.9 °F 24.6 °F 30.42 in Calm     43 % 0.00 in 0.0 W/m2 CLR
20:01 45.8 °F 24.5 °F 30.41 in Calm   3.5 mph 43 % 0.00 in 0.0 W/m2 CLR
20:04 45.8 °F 24.5 °F 30.41 in South 3.3 mph 6.9 mph 43 % 0.00 in 0.0 W/m2 CLR
20:09 45.8 °F 24.5 °F 30.41 in South 4.6 mph 7.0 mph 43 % 0.00 in 0.0 W/m2 CLR
20:14 45.8 °F 24.5 °F 30.41 in South 3.1 mph 8.1 mph 43 % 0.00 in 0.0 W/m2 CLR
20:19 45.7 °F 25.0 °F 30.41 in South 2.5 mph 6.0 mph 44 % 0.00 in 0.0 W/m2 CLR
20:24 45.7 °F 24.5 °F 30.41 in South 0.2 mph 3.5 mph 43 % 0.00 in 0.0 W/m2 CLR
20:29 45.6 °F 24.9 °F 30.41 in Calm   1.2 mph 44 % 0.00 in 0.0 W/m2 CLR
20:34 45.5 °F 24.8 °F 30.41 in South 0.2 mph 3.5 mph 44 % 0.00 in 0.0 W/m2 CLR
20:39 45.4 °F 24.7 °F 30.41 in South 3.6 mph 6.9 mph 44 % 0.00 in 0.0 W/m2 CLR
20:44 45.3 °F 24.6 °F 30.41 in SSE 3.1 mph 4.6 mph 44 % 0.00 in 0.0 W/m2 CLR
20:49 45.3 °F 24.6 °F 30.41 in South 3.6 mph 4.0 mph 44 % 0.00 in 0.0 W/m2 CLR
20:54 45.3 °F 24.6 °F 30.41 in South 2.5 mph 4.6 mph 44 % 0.00 in 0.0 W/m2 CLR
20:59 45.2 °F 25.1 °F 30.41 in South 0.4 mph 3.5 mph 45 % 0.00 in 0.0 W/m2 CLR
21:04 45.0 °F 24.9 °F 30.41 in South 2.9 mph 4.6 mph 45 % 0.00 in 0.0 W/m2 CLR
21:09 45.0 °F 24.9 °F 30.41 in South 5.6 mph 7.0 mph 45 % 0.00 in 0.0 W/m2 CLR
21:14 45.0 °F 24.9 °F 30.41 in SSW 3.2 mph 4.0 mph 45 % 0.00 in 0.0 W/m2 CLR
21:19 44.9 °F 25.3 °F 30.41 in SSW 1.9 mph 3.0 mph 46 % 0.00 in 0.0 W/m2 CLR
21:24 44.8 °F 25.3 °F 30.41 in SSW 1.2 mph 4.6 mph 46 % 0.00 in 0.0 W/m2 CLR
21:29 44.7 °F 25.7 °F 30.41 in South 1.9 mph 4.6 mph 47 % 0.00 in 0.0 W/m2 CLR
21:34 44.6 °F 25.6 °F 30.41 in SSW 3.0 mph 5.8 mph 47 % 0.00 in 0.0 W/m2 CLR
21:39 44.5 °F 26.5 °F 30.41 in South 0.9 mph 4.6 mph 49 % 0.00 in 0.0 W/m2 CLR
21:44 44.3 °F 26.3 °F 30.41 in Calm   2.3 mph 49 % 0.00 in 0.0 W/m2 CLR
21:49 44.2 °F 25.7 °F 30.41 in Calm   3.5 mph 48 % 0.00 in 0.0 W/m2 CLR
21:54 44.1 °F 26.1 °F 30.41 in South 1.9 mph 2.3 mph 49 % 0.00 in 0.0 W/m2 CLR
21:59 44.0 °F 26.5 °F 30.40 in South 0.3 mph 2.3 mph 50 % 0.00 in 0.0 W/m2 CLR
22:04 44.0 °F 26.5 °F 30.40 in South 2.1 mph 3.5 mph 50 % 0.00 in 0.0 W/m2 CLR
22:09 43.9 °F 26.9 °F 30.40 in Calm     51 % 0.00 in 0.0 W/m2 CLR
22:14 43.9 °F 26.9 °F 30.40 in South 2.3 mph 4.6 mph 51 % 0.00 in 0.0 W/m2 CLR
22:19 43.9 °F 27.4 °F 30.40 in South 1.1 mph 3.5 mph 52 % 0.00 in 0.0 W/m2 CLR
22:24 43.8 °F 27.3 °F 30.40 in Calm     52 % 0.00 in 0.0 W/m2 CLR
22:29 43.7 °F 27.7 °F 30.40 in SSW 2.2 mph 4.0 mph 53 % 0.00 in 0.0 W/m2 CLR
22:34 43.6 °F 27.6 °F 30.40 in SSW 0.6 mph 3.5 mph 53 % 0.00 in 0.0 W/m2 CLR
22:39 43.5 °F 27.9 °F 30.40 in SSW 0.3 mph 3.5 mph 54 % 0.00 in 0.0 W/m2 CLR
22:44 43.4 °F 28.3 °F 30.40 in SSW 1.2 mph 2.0 mph 55 % 0.00 in 0.0 W/m2 CLR
22:49 43.2 °F 28.1 °F 30.40 in SSW 2.8 mph 3.5 mph 55 % 0.00 in 0.0 W/m2 CLR
22:54 43.0 °F 28.4 °F 30.40 in SSW 2.6 mph 3.5 mph 56 % 0.00 in 0.0 W/m2 CLR
22:59 42.9 °F 29.1 °F 30.40 in SSW 4.3 mph 4.6 mph 58 % 0.00 in 0.0 W/m2 CLR
23:04 42.8 °F 28.6 °F 30.39 in SSW 3.2 mph 4.6 mph 57 % 0.00 in 0.0 W/m2 CLR
23:09 42.8 °F 28.6 °F 30.39 in Calm   2.3 mph 57 % 0.00 in 0.0 W/m2 CLR
23:14 42.7 °F 28.5 °F 30.39 in SSW 2.5 mph 3.5 mph 57 % 0.00 in 0.0 W/m2 CLR
23:19 42.7 °F 28.5 °F 30.39 in Calm     57 % 0.00 in 0.0 W/m2 CLR
23:24 42.7 °F 28.5 °F 30.39 in SSW 0.4 mph 3.5 mph 57 % 0.00 in 0.0 W/m2 CLR
23:29 42.8 °F 28.6 °F 30.39 in Calm     57 % 0.00 in 0.0 W/m2 CLR
23:34 42.7 °F 28.5 °F 30.38 in Calm     57 % 0.00 in 0.0 W/m2 CLR
23:39 42.6 °F 28.8 °F 30.39 in Calm   3.5 mph 58 % 0.00 in 0.0 W/m2 CLR
23:44 42.4 °F 29.5 °F 30.38 in Calm   1.2 mph 60 % 0.00 in 0.0 W/m2 CLR
23:49 42.3 °F 29.8 °F 30.38 in Calm     61 % 0.00 in 0.0 W/m2 CLR
23:54 42.2 °F 29.7 °F 30.38 in Calm     61 % 0.00 in 0.0 W/m2 CLR
23:59 42.3 °F 30.2 °F 30.38 in Calm     62 % 0.00 in 0.0 W/m2 CLR
Air Products Campus Weather
Compliments of Weather Underground - 3.5 mb